Location: Chassagnes
(44.4047°N, 4.1657°E)
Time: 12:32:02
(UTC+00:00)

Cosmos 1980 Rocket - Pass Details

Date: 27 October 2020
Orbit: 831 x 848 km, 71.0° (Epoch: 23 November)

Event Time Altitude Azimuth Distance (km) Brightness Sun altitude
Rises 19:43:35 0° 218° (SW) 3,379 5.6 -33.3°
Reaches altitude 10° 19:46:05 10° 222° (SW) 2,446 4.9 -33.7°
Enters shadow 19:49:20 34° 241° (WSW) 1,361 3.5 -34.3°
